Weather History for Milk River, Alberta

Change the Weather History Date:

Monday, September 23, 2013

  Actual Average Record
Temperature  
Mean Temperature 50 °F -  
Max Temperature 63 °F - - ()
Min Temperature 38 °F - - ()
Degree Days  
Heating Degree Days 14    
Moisture  
Dew Point 34 °F    
Average Humidity 50    
Maximum Humidity 77    
Minimum Humidity 20    
Precipitation  
Precipitation 0.00 in - - ()
Sea Level Pressure  
Sea Level Pressure 29.68 in    
Wind  
Wind Speed 14 mph ()    
Max Wind Speed 30 mph    
Max Gust Speed 41 mph    
T = Trace of Precipitation, MM = Missing Value Source: Averaged Metar Reports

Daily Weather History Graph

Daily Weather History Graph

Search for Another Location

Airport:

Trip Planner

Search our weather history database for the weather conditions in past years. The results will help you decide how hot, cold, wet, or windy it might be!

Date:

Astronomy

Sep. 23, 2013 Rise Set
Actual Time 7:16 AM MDT 7:23 PM MDT
Civil Twilight 6:44 AM MDT 7:54 PM MDT
Nautical Twilight 6:07 AM MDT 8:32 PM MDT
Astronomical Twilight 5:29 AM MDT 9:10 PM MDT
Moon 9:32 PM MDT (9/23) 12:04 PM MDT (9/23)
Length of Visible Light 13h 09m
Length of Day
12h 06m
Waning Gibbous, 81% of the Moon is Illuminated
Sep 23
Waning Gibbous
Sep 26
Last Quarter
Oct 4
New
Oct 11
First Quarter
Oct 18
Full

Hourly Weather History & Observations

Time (MDT) Temp. Windchill Dew Point Humidity Pressure Visibility Wind Dir Wind Speed Gust Speed Precip Events Conditions
12:00 AM 48 °F - 36 °F 53% 29.58 in - SW 11.5 mph - -  
12:00 AM 47.8 °F - 36.3 °F 64% 29.58 in - SW 11.5 mph - N/A   Unknown
1:00 AM 47.5 °F - 36.1 °F 65% 29.56 in - WSW 12.7 mph 19.6 mph N/A   Unknown
2:00 AM 48.2 °F - 36.3 °F 63% 29.55 in - SSW 10.4 mph - N/A   Unknown
3:00 AM 46.9 °F - 36.5 °F 67% 29.57 in - SW 11.5 mph - N/A   Unknown
4:00 AM 48.2 °F - 38.1 °F 68% 29.57 in - SSW 11.5 mph - N/A   Unknown
5:00 AM 49.3 °F - 37.8 °F 65% 29.58 in - SW 16.1 mph 25.3 mph N/A   Unknown
6:00 AM 49 °F - 36 °F 51% 29.61 in - WSW 15.0 mph - -  
6:00 AM 49.3 °F - 36.5 °F 61% 29.61 in - WSW 15.0 mph - N/A   Unknown
7:00 AM 41.5 °F 39.6 °F 34.7 °F 77% 29.67 in - SSW 3.5 mph - N/A   Unknown
8:00 AM 43.7 °F 39.7 °F 35.4 °F 73% 29.67 in - SSW 6.9 mph - N/A   Unknown
9:00 AM 53.1 °F - 34.5 °F 49% 29.66 in - WSW 20.7 mph 26.5 mph N/A   Unknown
10:00 AM 56.7 °F - 31.3 °F 38% 29.67 in - West 29.9 mph 39.1 mph N/A   Unknown
11:00 AM 58.3 °F - 32.0 °F 37% 29.68 in - West 28.8 mph 39.1 mph N/A   Unknown
12:00 PM 60 °F - 30 °F 20% 29.68 in - West 28.8 mph - -  
12:00 PM 60.4 °F - 30.0 °F 32% 29.68 in - West 28.8 mph 41.4 mph N/A   Unknown
1:00 PM 62.2 °F - 29.3 °F 29% 29.68 in - West 28.8 mph 36.8 mph N/A   Unknown
2:00 PM 63.0 °F - 30.2 °F 29% 29.70 in - West 28.8 mph 41.4 mph N/A   Unknown
3:00 PM 63.0 °F - 28.0 °F 27% 29.70 in - West 28.8 mph 38.0 mph N/A   Unknown
4:00 PM 60.8 °F - 31.3 °F 33% 29.73 in - WSW 25.3 mph 34.5 mph N/A   Unknown
5:00 PM 59.5 °F - 31.1 °F 34% 29.74 in - WSW 26.5 mph 32.2 mph N/A   Unknown
6:00 PM 56 °F - 32 °F 28% 29.78 in - WSW 23.0 mph - -  
6:00 PM 56.5 °F - 31.6 °F 39% 29.78 in - WSW 23.0 mph 32.2 mph N/A   Unknown
7:00 PM 53.2 °F - 33.8 °F 48% 29.81 in - WSW 12.7 mph - N/A   Unknown
8:00 PM 47.5 °F - 34.2 °F 60% 29.82 in - WSW 6.9 mph - N/A   Unknown
9:00 PM 47.7 °F - 34.2 °F 60% 29.82 in - West 8.1 mph - N/A   Unknown
10:00 PM 46.0 °F 41.9 °F 33.8 °F 62% 29.83 in - West 8.1 mph - N/A   Unknown
11:00 PM 45.3 °F 40.6 °F 33.3 °F 63% 29.82 in - SW 9.2 mph - N/A   Unknown